HJ3GNC-10 Weather Reports


time (UTC)temp
F
wind
direction
speed
knots
gust
knots
rain 1hr
in
rain 24hr
in
rain mn
in
humidity
%
barometer
mb
20260504224620 60 70 0.0 0.0 0.00 0.00 0.00 73 1015.0
20260504223038 62 112 0.0 0.0 0.00 0.00 0.00 73 1015.0
20260504215912 62 60 0.0 0.0 0.00 0.00 0.00 73 1014.0
20260504214325 63 60 0.0 0.0 0.00 0.00 0.00 72 1014.0
20260504212742 63 60 0.0 0.0 0.00 0.00 0.00 71 1014.0
20260504211158 63 60 0.0 0.0 0.00 0.00 0.00 69 1014.0
20260504205609 63 112 0.0 0.0 0.00 0.00 0.00 68 1014.0
20260504204017 63 112 0.0 0.0 0.00 0.00 0.00 68 1014.0
20260504202420 63 267 0.0 0.0 0.00 0.00 0.00 68 1014.0
20260504200821 63 267 0.0 0.0 0.00 0.00 0.00 68 1014.0
20260504195237 63 267 0.0 0.0 0.00 0.00 0.00 68 1014.0
20260504193655 65 267 0.0 0.0 0.00 0.00 0.00 68 1014.0
20260504192108 65 0 0.0 0.0 0.00 0.00 0.00 68 1014.0
20260504190526 65 0 0.0 0.0 0.00 0.00 0.00 67 1014.0
20260504184944 65 150 0.0 0.0 0.00 0.00 0.00 67 1014.0
20260504183411 65 150 0.0 0.0 0.00 0.00 0.00 67 1014.0
20260504181818 65 150 0.0 0.0 0.00 0.00 0.00 68 1015.0
20260504180236 65 120 0.0 0.0 0.00 0.00 0.00 69 1015.0
20260504174653 65 120 0.0 0.0 0.00 0.00 0.00 71 1015.0
20260504173107 65 120 0.0 0.0 0.00 0.00 0.00 74 1015.0
20260504171527 65 120 0.0 0.0 0.00 0.00 0.00 77 1016.0
20260504150618 65 207 0.0 0.0 0.00 0.00 0.00 99 1016.0
20260504140710 57 0 0.0 0.0 0.00 0.00 0.00 99 1017.0
20260504100409 55 0 0.0 0.0 0.00 0.00 0.00 99 1018.0
20260504081305 55 20 0.0 0.0 0.00 0.00 0.00 99 1018.0
20260504050131 55 280 0.0 0.0 0.00 0.00 0.00 99 1020.0
20260504044546 55 105 0.0 0.0 0.00 0.00 0.00 98 1020.0
20260504043001 55 106 0.0 0.0 0.00 0.00 0.00 98 1020.0
20260504041418 55 106 0.0 0.0 0.00 0.00 0.00 98 1020.0
20260504035823 55 340 0.0 0.0 0.00 0.00 0.00 98 1020.0
20260504034236 57 340 0.0 0.0 0.00 0.00 0.00 98 1020.0
20260504032648 57 340 0.0 0.0 0.00 0.00 0.00 98 1020.0
20260504031103 57 340 0.0 0.0 0.00 0.00 0.00 98 1020.0
20260504025434 57 0 0.0 0.0 0.00 0.00 0.00 98 1020.0
20260504023839 57 0 0.0 0.0 0.00 0.00 0.00 98 1019.0
20260504022234 57 0 0.0 0.0 0.00 0.00 0.00 98 1019.0
20260504020645 57 0 0.0 0.0 0.00 0.00 0.00 97 1019.0
20260504015051 57 0 0.0 0.0 0.00 0.00 0.00 95 1019.0
20260504011805 58 0 0.0 0.0 0.00 0.00 0.00 93 1018.0
20260504010205 58 250 0.0 0.0 0.00 0.00 0.00 91 1018.0
20260504001042 58 250 0.0 0.0 0.00 0.00 0.00 87 1017.0
20260503235431 58 270 0.0 0.0 0.00 0.00 0.00 83 1017.0
20260503233831 60 270 0.0 0.0 0.00 0.00 0.00 83 1016.0
20260503232241 60 270 0.0 0.0 0.00 0.00 0.00 82 1015.0
20260503230654 60 270 0.0 0.0 0.00 0.00 0.00 79 1015.0
20260503225058 60 134 0.0 0.0 0.00 0.00 0.00 77 1015.0